This is the latest recevied weather packets stored in our database for station/object 9M2EVR-2. If no packets are shown the sender has not sent any weather packets the latest 10 day(s).
| Time | Temp. | Humidity | Pressure | Rain* | Wind** | Luminosity | Snow |
|---|---|---|---|---|---|---|---|
| 1777425335 | 37.22° C | 50% | 1008 hPa | - | - | - | - |
| 1777424434 | 37.22° C | 50% | 1007.8 hPa | - | - | - | - |
| 1777423534 | 37.78° C | 49% | 1007.6 hPa | - | - | - | - |
| 1777422633 | 37.22° C | 49% | 1007.6 hPa | - | - | - | - |
| 1777421732 | 37.78° C | 49% | 1007.4 hPa | - | - | - | - |
| 1777420831 | 37.78° C | 48% | 1007.4 hPa | - | - | - | - |
| 1777419930 | 36.67° C | 49% | 1007.3 hPa | - | - | - | - |
| 1777419030 | 36.67° C | 49% | 1006.7 hPa | - | - | - | - |
| 1777418129 | 36.67° C | 48% | 1006.5 hPa | - | - | - | - |
| 1777417228 | 36.67° C | 48% | 1006.4 hPa | - | - | - | - |
| 1777416327 | 37.22° C | 48% | 1006 hPa | - | - | - | - |
| 1777415426 | 36.67° C | 48% | 1006 hPa | - | - | - | - |
| 1777414526 | 37.22° C | 48% | 1006.1 hPa | - | - | - | - |
| 1777413625 | 37.22° C | 48% | 1006 hPa | - | - | - | - |
| 1777412723 | 37.22° C | 48% | 1005.8 hPa | - | - | - | - |
| 1777411822 | 37.22° C | 48% | 1005.6 hPa | - | - | - | - |
| 1777410921 | 37.22° C | 47% | 1005.5 hPa | - | - | - | - |
| 1777410021 | 37.22° C | 47% | 1005.4 hPa | - | - | - | - |
| 1777409120 | 37.78° C | 47% | 1005.3 hPa | - | - | - | - |
| 1777408219 | 37.78° C | 46% | 1005.3 hPa | - | - | - | - |
| 1777407318 | 38.33° C | 45% | 1005.2 hPa | - | - | - | - |
| 1777406417 | 39.44° C | 43% | 1005.1 hPa | - | - | - | - |
| 1777405517 | 40° C | 42% | 1005.2 hPa | - | - | - | - |
| 1777404616 | 40.56° C | 41% | 1005.3 hPa | - | - | - | - |
| 1777403715 | 41.11° C | 40% | 1005.4 hPa | - | - | - | - |
* Rain since midnight (hover to see other rain measurements)
** Current wind speed in m/s (hover to see current wind gust speed)